When you browse on this site, cookies collect data to enhance your experience and personalize the content and advertising you see.
Visit our Privacy Policy to learn more. By continuing to use the site, you agree to this use of cookies and data.
  • In Hungary
  • List of Countries
  • For 7 days
  • Water Temperature
  • Satellite Maps
  • Weather Map
  • News
  • Weather Widgets
  • user-avatar
    Login

    Hourly Weather Targowiska

    Today, 19 December, Wednesday

    Time Temperature Precipitation Wind Pressure Humidity
    00:00 -3°C° 0 mm 1 mps 744 mmHg 94%
    01:00 -4°C° 0 mm 1 mps 744 mmHg 94%
    02:00 -4°C° 0 mm 1 mps 744 mmHg 94%
    03:00 -4°C° 0 mm 1 mps 743 mmHg 93%
    04:00 -6°C° 0 mm 1 mps 743 mmHg 93%
    05:00 -6°C° 0 mm 1 mps 743 mmHg 93%
    06:00 -6°C° 0 mm 1 mps 743 mmHg 92%
    07:00 -6°C° 0 mm 1 mps 743 mmHg 91%
    08:00 -6°C° 0 mm 2 mps 743 mmHg 88%
    09:00 -5°C° 0 mm 2 mps 743 mmHg 85%
    10:00 -4°C° 0 mm 2 mps 743 mmHg 82%
    11:00 -4°C° 0 mm 2 mps 743 mmHg 81%
    12:00 -3°C° 0 mm 2 mps 742 mmHg 80%
    13:00 -2°C° 0 mm 3 mps 742 mmHg 79%
    14:00 -4°C° 0 mm 3 mps 742 mmHg 82%
    15:00 -5°C° 0 mm 3 mps 742 mmHg 86%
    16:00 -6°C° 0 mm 3 mps 741 mmHg 90%
    17:00 -6°C° 0 mm 3 mps 741 mmHg 90%
    18:00 -7°C° 0 mm 3 mps 741 mmHg 90%
    19:00 -7°C° 0 mm 3 mps 741 mmHg 90%
    20:00 -7°C° 0 mm 3 mps 741 mmHg 89%
    21:00 -7°C° 0 mm 3 mps 741 mmHg 88%
    22:00 -7°C° 0 mm 3 mps 740 mmHg 87%
    23:00 -7°C° 0 mm 3 mps 740 mmHg 86%

    Tomorrow, 20 December, Thursday

    Time Temperature Precipitation Wind Pressure Humidity
    00:00 -7°C° 0 mm 3 mps 740 mmHg 85%
    01:00 -7°C° 0 mm 3 mps 740 mmHg 84%
    02:00 -7°C° 0 mm 3 mps 740 mmHg 83%
    03:00 -6°C° 0 mm 3 mps 739 mmHg 83%
    04:00 -6°C° 0 mm 3 mps 739 mmHg 82%
    05:00 -6°C° 0 mm 3 mps 739 mmHg 82%
    06:00 -5°C° 0 mm 4 mps 739 mmHg 81%
    07:00 -5°C° 0 mm 4 mps 739 mmHg 81%
    08:00 -5°C° 0 mm 4 mps 739 mmHg 80%
    09:00 -4°C° 0 mm 4 mps 739 mmHg 79%
    10:00 -3°C° 0 mm 4 mps 739 mmHg 77%
    11:00 -3°C° 0.1 mm 4 mps 739 mmHg 78%
    12:00 -3°C° 0.1 mm 4 mps 739 mmHg 79%
    13:00 -3°C° 0.1 mm 4 mps 738 mmHg 80%
    14:00 -3°C° 0.2 mm 4 mps 738 mmHg 83%
    15:00 -3°C° 0.2 mm 4 mps 738 mmHg 85%
    16:00 -4°C° 0.2 mm 4 mps 738 mmHg 87%
    17:00 -4°C° 0.2 mm 4 mps 739 mmHg 88%
    18:00 -4°C° 0.2 mm 4 mps 739 mmHg 89%
    19:00 -4°C° 0.2 mm 4 mps 739 mmHg 90%
    20:00 -4°C° 0.2 mm 4 mps 739 mmHg 90%
    21:00 -4°C° 0.2 mm 4 mps 739 mmHg 90%
    22:00 -4°C° 0.2 mm 4 mps 739 mmHg 90%
    23:00 -3°C° 0.1 mm 4 mps 739 mmHg 90%

    Day after tomorrow, 21 December, Friday

    Time Temperature Precipitation Wind Pressure Humidity
    00:00 -3°C° 0.1 mm 4 mps 739 mmHg 90%
    01:00 -3°C° 0.1 mm 4 mps 739 mmHg 90%
    02:00 -3°C° 0 mm 4 mps 739 mmHg 90%
    03:00 -3°C° 0 mm 4 mps 739 mmHg 90%
    04:00 -4°C° 0 mm 4 mps 738 mmHg 90%
    05:00 -3°C° 0 mm 4 mps 738 mmHg 90%
    06:00 -3°C° 0 mm 4 mps 739 mmHg 89%
    07:00 -3°C° 0 mm 4 mps 739 mmHg 89%
    08:00 -4°C° 0 mm 5 mps 738 mmHg 88%
    09:00 -2°C° 0 mm 5 mps 738 mmHg 88%
    10:00 -2°C° 0 mm 5 mps 738 mmHg 87%
    11:00 -2°C° 0.2 mm 5 mps 738 mmHg 87%
    12:00 -1°C° 0.2 mm 5 mps 737 mmHg 87%
    13:00 -2°C° 0.2 mm 6 mps 737 mmHg 88%
    14:00 -2°C° 0.2 mm 6 mps 736 mmHg 88%
    15:00 -2°C° 0.2 mm 6 mps 736 mmHg 87%
    16:00 -2°C° 0.2 mm 6 mps 735 mmHg 87%
    17:00 -2°C° 0.2 mm 7 mps 735 mmHg 87%
    18:00 -2°C° 0.2 mm 7 mps 734 mmHg 86%
    19:00 -2°C° 0.2 mm 8 mps 734 mmHg 86%
    20:00 -2°C° 0.5 mm 8 mps 733 mmHg 86%
    21:00 -2°C° 0.5 mm 8 mps 732 mmHg 87%
    22:00 -2°C° 0.5 mm 8 mps 731 mmHg 87%
    23:00 -2°C° 0.5 mm 7 mps 731 mmHg 88%

    22 December, Saturday

    Time Temperature Precipitation Wind Pressure Humidity
    00:00 -2°C° 0.5 mm 7 mps 731 mmHg 88%
    01:00 -2°C° 0.5 mm 7 mps 730 mmHg 88%
    02:00 -1°C° 0.1 mm 6 mps 730 mmHg 89%
    03:00 -1°C° 0.1 mm 6 mps 730 mmHg 90%
    04:00 0°C° 0.1 mm 5 mps 730 mmHg 91%
    05:00 0°C° 0 mm 5 mps 730 mmHg 91%
    06:00 0°C° 0 mm 5 mps 730 mmHg 91%
    07:00 0°C° 0 mm 5 mps 730 mmHg 91%
    08:00 0°C° 0 mm 5 mps 730 mmHg 91%
    09:00 0°C° 0 mm 4 mps 730 mmHg 91%
    10:00 +1°C° 0 mm 4 mps 730 mmHg 92%
    11:00 +1°C° 0.3 mm 4 mps 729 mmHg 92%
    12:00 +1°C° 0.3 mm 4 mps 728 mmHg 93%
    13:00 +1°C° 0.3 mm 4 mps 728 mmHg 94%
    14:00 +1°C° 0.1 mm 4 mps 727 mmHg 93%
    15:00 +1°C° 0.1 mm 4 mps 727 mmHg 93%
    16:00 +1°C° 0.1 mm 4 mps 727 mmHg 93%
    17:00 +2°C° 0.2 mm 5 mps 727 mmHg 92%
    18:00 +2°C° 0.2 mm 6 mps 727 mmHg 91%
    19:00 +2°C° 0.2 mm 6 mps 727 mmHg 90%
    20:00 +2°C° 0.2 mm 6 mps 728 mmHg 90%
    21:00 +2°C° 0.2 mm 6 mps 728 mmHg 90%
    22:00 +2°C° 0.2 mm 5 mps 729 mmHg 90%
    23:00 +2°C° 0 mm 5 mps 729 mmHg 89%

    23 December, Sunday

    Time Temperature Precipitation Wind Pressure Humidity
    00:00 +2°C° 0 mm 5 mps 729 mmHg 89%
    01:00 +1°C° 0 mm 4 mps 729 mmHg 89%
    02:00 +1°C° 0.2 mm 4 mps 730 mmHg 88%
    03:00 +1°C° 0.2 mm 4 mps 730 mmHg 88%
    04:00 +1°C° 0.2 mm 5 mps 730 mmHg 88%
    05:00 +1°C° 0.3 mm 5 mps 730 mmHg 89%
    06:00 +1°C° 0.3 mm 5 mps 730 mmHg 90%
    07:00 +2°C° 0.3 mm 6 mps 731 mmHg 91%
    08:00 +2°C° 0.1 mm 6 mps 731 mmHg 89%
    09:00 +2°C° 0.1 mm 6 mps 732 mmHg 88%
    10:00 +2°C° 0.1 mm 6 mps 733 mmHg 86%
    11:00 +2°C° 0.1 mm 5 mps 733 mmHg 86%
    12:00 +2°C° 0.1 mm 5 mps 733 mmHg 85%
    13:00 +2°C° 0.1 mm 5 mps 733 mmHg 84%
    14:00 +3°C° 0.1 mm 4 mps 733 mmHg 85%
    15:00 +1°C° 0.1 mm 4 mps 733 mmHg 87%
    16:00 +1°C° 0.1 mm 4 mps 734 mmHg 88%
    17:00 +1°C° 0.1 mm 4 mps 734 mmHg 89%
    18:00 +1°C° 0.1 mm 4 mps 734 mmHg 89%
    19:00 0°C° 0.1 mm 4 mps 734 mmHg 89%
    20:00 0°C° 0.1 mm 4 mps 734 mmHg 89%
    21:00 0°C° 0.1 mm 4 mps 734 mmHg 89%
    22:00 0°C° 0.1 mm 4 mps 734 mmHg 88%
    23:00 0°C° 0.3 mm 4 mps 734 mmHg 88%

    24 December, Monday

    Time Temperature Precipitation Wind Pressure Humidity
    00:00 +1°C° 0.3 mm 5 mps 734 mmHg 87%
    01:00 +1°C° 0.3 mm 5 mps 734 mmHg 87%
    02:00 +1°C° 0.3 mm 6 mps 734 mmHg 86%
    03:00 +1°C° 0.3 mm 6 mps 734 mmHg 86%
    04:00 +1°C° 0.3 mm 6 mps 734 mmHg 86%
    05:00 0°C° 0.1 mm 5 mps 735 mmHg 86%
    06:00 -1°C° 0.1 mm 5 mps 736 mmHg 87%
    07:00 -2°C° 0.1 mm 4 mps 736 mmHg 88%
    08:00 -2°C° 0 mm 4 mps 737 mmHg 86%
    09:00 -2°C° 0 mm 4 mps 738 mmHg 84%
    10:00 -2°C° 0 mm 5 mps 738 mmHg 82%
    11:00 -2°C° 0 mm 4 mps 739 mmHg 80%
    12:00 -2°C° 0 mm 4 mps 739 mmHg 79%
    13:00 -1°C° 0 mm 4 mps 739 mmHg 78%
    14:00 -1°C° 0 mm 3 mps 739 mmHg 81%
    15:00 -1°C° 0 mm 3 mps 740 mmHg 85%
    16:00 -2°C° 0 mm 2 mps 740 mmHg 88%
    17:00 -2°C° 0 mm 2 mps 740 mmHg 89%
    18:00 -2°C° 0 mm 2 mps 741 mmHg 91%
    19:00 -2°C° 0 mm 2 mps 741 mmHg 92%
    20:00 -2°C° 0.1 mm 2 mps 741 mmHg 93%
    21:00 -1°C° 0.1 mm 2 mps 741 mmHg 93%
    22:00 -1°C° 0.1 mm 2 mps 741 mmHg 93%
    23:00 -1°C° 0 mm 2 mps 741 mmHg 94%
    Show more